K0OHU-1 Weather Reports


Display with metric or nautical units.
time (UTC)temp
F
wind
direction
speed
MPH
gust
MPH
rain 1hr
in
rain 24hr
in
rain mn
in
humidity
%
barometer
mb
20141024081818 56 91 0.0 2.0 0.00 0.00 0.00 39 1018.6
20141024080330 57 90 0.0 0.0 0.00 0.00 0.00 37 1019.2
20141024074834 56 90 0.0 0.0 0.00 0.00 0.00 43 1019.3
20141024073327 53 90 0.0 0.0 0.00 0.00 0.00 40 1018.9
20141024071832 52 91 0.0 0.0 0.00 0.00 0.00 50 1019.3
20141024070320 53 91 0.0 0.0 0.00 0.00 0.00 50 1018.9
20141024064830 53 90 0.0 0.0 0.00 0.00 0.00 49 1019.3
20141024063319 54 91 0.0 0.0 0.00 0.00 0.00 48 1018.8
20141024061825 54 91 0.0 0.0 0.00 0.00 0.00 48 1018.9
20141024060338 55 91 0.0 0.0 0.00 0.00 0.00 47 1018.9
20141024054834 55 91 0.0 0.0 0.00 0.00 0.00 44 1018.8
20141024053335 55 91 0.0 0.0 0.00 0.00 0.00 45 1019.0
20141024051821 55 90 0.0 0.0 0.00 0.00 0.00 44 1018.9
20141024050333 55 91 0.0 0.0 0.00 0.00 0.00 48 1019.9
20141024044713 55 91 0.0 0.0 0.00 0.00 0.00 47 1019.1
20141024043216 55 90 0.0 0.0 0.00 0.00 0.00 45 1019.1
20141024041730 54 91 0.0 1.0 0.00 0.00 0.00 48 1018.9
20141024040243 52 90 0.0 0.0 0.00 0.00 0.00 57 1019.4
20141024034734 52 90 0.0 0.0 0.00 0.00 0.00 59 1019.3
20141024033243 51 90 0.0 0.0 0.00 0.00 0.00 60 1018.8
20141024031729 52 90 0.0 0.0 0.00 0.00 0.00 61 1019.3
20141024030243 52 91 0.0 0.0 0.00 0.00 0.00 60 1019.4
20141024024729 53 90 0.0 0.0 0.00 0.00 0.00 59 1019.5
20141024023240 54 90 0.0 0.0 0.00 0.00 0.00 58 1019.0
20141024021729 54 90 0.0 0.0 0.00 0.00 0.00 57 1019.0
20141024020237 55 90 0.0 0.0 0.00 0.00 0.00 55 1019.0
20141024014743 56 90 0.0 0.0 0.00 0.00 0.00 54 1019.5
20141024013236 57 90 0.0 0.0 0.00 0.00 0.00 52 1019.2
20141024011733 59 90 0.0 0.0 0.00 0.00 0.00 49 1018.9
20141024010231 60 90 0.0 0.0 0.00 0.00 0.00 46 1018.7
20141024004742 61 90 0.0 0.0 0.00 0.00 0.00 45 1019.1
20141024003232 63 90 0.0 0.0 0.00 0.00 0.00 42 1018.6
20141024001737 65 90 0.0 0.0 0.00 0.00 0.00 39 1018.2
20141024000230 66 90 0.0 0.0 0.00 0.00 0.00 35 1018.4
20141023234736 68 90 0.0 0.0 0.00 0.00 0.00 32 1018.0
20141023233246 69 90 0.0 0.0 0.00 0.00 0.00 30 1017.9
20141023231735 70 90 0.0 0.0 0.00 0.00 0.00 29 1018.1
20141023230245 71 90 0.0 0.0 0.00 0.00 0.00 27 1017.8
20141023224732 72 90 0.0 1.0 0.00 0.00 0.00 27 1017.7
20141023223246 72 90 0.0 0.0 0.00 0.00 0.00 26 1017.5
20141023221733 73 90 0.0 0.0 0.00 0.00 0.00 26 1018.0
20141023220244 74 90 0.0 2.0 0.00 0.00 0.00 25 1017.8
20141023214733 75 92 0.0 1.0 0.00 0.00 0.00 25 1017.7
20141023213243 76 86 0.0 0.0 0.00 0.00 0.00 25 1018.3
20141023211750 75 74 0.0 2.0 0.00 0.00 0.00 25 1017.9
20141023210245 75 145 0.0 0.0 0.00 0.00 0.00 25 1018.4
20141023204731 73 145 0.0 4.0 0.00 0.00 0.00 26 1017.9
20141023203242 73 84 0.0 1.0 0.00 0.00 0.00 27 1017.9
20141023201733 74 105 0.0 5.0 0.00 0.00 0.00 26 1018.7
20141023200242 75 82 1.0 4.0 0.00 0.00 0.00 26 1018.4
20141023194746 74 144 0.0 1.0 0.00 0.00 0.00 27 1018.5
20141023193242 73 144 0.0 2.0 0.00 0.00 0.00 27 1019.2
20141023191739 73 150 0.0 0.0 0.00 0.00 0.00 27 1019.5
20141023190239 74 150 0.0 1.0 0.00 0.00 0.00 27 1019.3
20141023184748 75 151 0.0 1.0 0.00 0.00 0.00 28 1019.1
20141023183236 75 86 1.0 4.0 0.00 0.00 0.00 27 1019.1
20141023181742 74 108 0.0 5.0 0.00 0.00 0.00 28 1019.7
20141023180235 73 80 0.0 5.0 0.00 0.00 0.00 29 1019.3
20141023174741 73 69 0.0 4.0 0.00 0.00 0.00 30 1020.0
20141023173249 73 111 0.0 4.0 0.00 0.00 0.00 31 1020.2
20141023171739 72 68 0.0 1.0 0.00 0.00 0.00 32 1019.9
20141023170249 70 69 0.0 5.0 0.00 0.00 0.00 35 1020.2
20141023164734 68 53 0.0 2.0 0.00 0.00 0.00 38 1020.5
20141023163246 65 52 0.0 2.0 0.00 0.00 0.00 44 1020.3
20141023161733 63 32 0.0 2.0 0.00 0.00 0.00 46 1020.9
20141023160240 60 28 0.0 1.0 0.00 0.00 0.00 50 1020.7
20141023154752 58 350 0.0 0.0 0.00 0.00 0.00 54 1020.4
20141023153305 55 350 0.0 0.0 0.00 0.00 0.00 59 1021.1
20141023151750 51 350 0.0 0.0 0.00 0.00 0.00 69 1020.8
20141023150303 46 350 0.0 0.0 0.00 0.00 0.00 80 1020.7
20141023144807 43 348 0.0 0.0 0.00 0.00 0.00 85 1021.2
20141023143256 40 348 0.0 0.0 0.00 0.00 0.00 89 1021.1
20141023141805 39 348 0.0 0.0 0.00 0.00 0.00 89 1021.2
20141023140255 38 348 0.0 0.0 0.00 0.00 0.00 89 1020.7
20141023134752 37 348 0.0 0.0 0.00 0.00 0.00 88 1021.0
20141023133254 37 348 0.0 0.0 0.00 0.00 0.00 88 1020.7
20141023131749 37 348 0.0 0.0 0.00 0.00 0.00 88 1020.7
20141023130308 37 348 0.0 0.0 0.00 0.00 0.00 87 1020.4
20141023124753 37 348 0.0 0.0 0.00 0.00 0.00 87 1020.4
20141023123306 38 348 0.0 0.0 0.00 0.00 0.00 87 1020.0
20141023121803 38 348 0.0 0.0 0.00 0.00 0.00 86 1019.9
20141023120303 38 348 0.0 0.0 0.00 0.00 0.00 86 1020.2
20141023114809 38 348 0.0 0.0 0.00 0.00 0.00 86 1020.2
20141023113302 38 348 0.0 0.0 0.00 0.00 0.00 86 1019.9
20141023111807 39 348 0.0 0.0 0.00 0.00 0.00 86 1019.7
20141023110256 39 348 0.0 0.0 0.00 0.00 0.00 86 1020.1
20141023104806 39 348 0.0 0.0 0.00 0.00 0.00 86 1020.2
20141023103254 39 348 0.0 0.0 0.00 0.00 0.00 85 1020.1
20141023101759 40 348 0.0 0.0 0.00 0.00 0.00 85 1019.8
20141023100312 40 348 0.0 0.0 0.00 0.00 0.00 84 1019.8
20141023094818 40 348 0.0 0.0 0.00 0.00 0.00 83 1019.7
20141023093307 41 348 0.0 0.0 0.00 0.00 0.00 86 1019.8
20141023091825 41 348 0.0 0.0 0.00 0.00 0.00 81 1019.8
20141023090336 42 348 0.0 0.0 0.00 0.00 0.00 81 1020.2
20141023084823 42 348 0.0 0.0 0.00 0.00 0.00 80 1019.9
20141023083338 43 348 0.0 0.0 0.00 0.00 0.00 79 1019.7